sat.trackr.live / text

‹ back to catalog

STARLINK-34069

NORAD 64920 · 2025-157S

PAYLOAD ACTIVE UNKNOWN

§ Identity

Operator
Country
US
Launch date
2025-07-26
Launch site
AFETR
Launch vehicle
Mass (kg)
RCS (m²)

Purposes: comms

External: N2YO · Heavens-Above · Gunter

§ Orbital elements

Epoch: 2026-09-20T10:23:52.234944Z

Period
93.85 min
Inclination
53.1580°
Eccentricity
0.0001276
Mean motion
15.34394432 rev/d
Perigee alt
461.8 km
Apogee alt
463.6 km
Semi-major
6,840.9 km
B*
7.1874e-4
RAAN
158.0041°
Arg perigee
93.7038°
Mean anomaly
266.4110°
Rev number
6,598

§ Raw data

STARLINK-340691 64920U 25157S   26263.43324346  .00023981  00000+0  71874-3 0  99912 64920  53.1580 158.0041 0001276  93.7038 266.4110 15.34394432 65986

JSON: /api/v1/satellites/64920 · /tle

For live sub-satellite position, see the globe view (requires WebGL).

§ Visibility from observer

Set your observer location to see the next 7 days of passes ≥ 10°. The values pass through the URL so the page stays shareable.

No JS? Fill the form by hand. The geolocation button needs JavaScript.